When you browse on this site, cookies collect data to enhance your experience and personalize the content and advertising you see.
Visit our Privacy Policy to learn more. By continuing to use the site, you agree to this use of cookies and data.
  • In Austria
  • List of Countries
  • For 7 days
  • Water Temperature
  • Satellite Maps
  • Weather Map
  • News
  • Weather Widgets
  • user-avatar
    Login

    Hourly Weather Kofu

    Today, 27 May, Monday

    Time Temperature Precipitation Wind Pressure Humidity
    00:00 +16°C° 0 mm 1 mps 674 mmHg 61%
    01:00 +16°C° 0 mm 1 mps 673 mmHg 59%
    02:00 +16°C° 0 mm 1 mps 673 mmHg 57%
    03:00 +16°C° 0 mm 1 mps 673 mmHg 55%
    04:00 +16°C° 0 mm 1 mps 673 mmHg 55%
    05:00 +18°C° 0 mm 1 mps 673 mmHg 56%
    06:00 +19°C° 0 mm 1 mps 673 mmHg 56%
    07:00 +21°C° 0 mm 1 mps 674 mmHg 48%
    08:00 +24°C° 0 mm 1 mps 675 mmHg 40%
    09:00 +27°C° 0 mm 1 mps 675 mmHg 33%
    10:00 +27°C° 0 mm 2 mps 675 mmHg 32%
    11:00 +28°C° 0 mm 2 mps 675 mmHg 31%
    12:00 +28°C° 0 mm 3 mps 675 mmHg 29%
    13:00 +28°C° 0 mm 3 mps 674 mmHg 31%
    14:00 +28°C° 0 mm 3 mps 674 mmHg 33%
    15:00 +27°C° 0 mm 3 mps 673 mmHg 35%
    16:00 +25°C° 0 mm 3 mps 673 mmHg 44%
    17:00 +23°C° 0 mm 2 mps 672 mmHg 54%
    18:00 +20°C° 0 mm 2 mps 672 mmHg 63%
    19:00 +20°C° 0 mm 1 mps 671 mmHg 62%
    20:00 +19°C° 0 mm 1 mps 671 mmHg 61%
    21:00 +18°C° 0 mm 1 mps 671 mmHg 59%
    22:00 +16°C° 0 mm 1 mps 670 mmHg 56%
    23:00 +16°C° 0 mm 1 mps 670 mmHg 53%

    Tomorrow, 28 May, Tuesday

    Time Temperature Precipitation Wind Pressure Humidity
    00:00 +16°C° 0 mm 1 mps 670 mmHg 50%
    01:00 +16°C° 0 mm 1 mps 669 mmHg 52%
    02:00 +16°C° 0 mm 1 mps 669 mmHg 55%
    03:00 +15°C° 0 mm 2 mps 669 mmHg 57%
    04:00 +16°C° 0 mm 2 mps 669 mmHg 60%
    05:00 +16°C° 0 mm 2 mps 669 mmHg 63%
    06:00 +16°C° 0 mm 2 mps 669 mmHg 66%
    07:00 +17°C° 0 mm 2 mps 669 mmHg 62%
    08:00 +18°C° 0 mm 3 mps 669 mmHg 58%
    09:00 +19°C° 0 mm 3 mps 669 mmHg 54%
    10:00 +20°C° 0 mm 3 mps 669 mmHg 55%
    11:00 +20°C° 0 mm 3 mps 670 mmHg 57%
    12:00 +21°C° 0 mm 3 mps 670 mmHg 58%
    13:00 +20°C° 0.1 mm 3 mps 669 mmHg 65%
    14:00 +19°C° 0.1 mm 3 mps 668 mmHg 72%
    15:00 +18°C° 0.1 mm 2 mps 668 mmHg 79%
    16:00 +17°C° 0.3 mm 2 mps 668 mmHg 82%
    17:00 +17°C° 0.3 mm 2 mps 667 mmHg 85%
    18:00 +16°C° 0.3 mm 2 mps 667 mmHg 89%
    19:00 +16°C° 0.9 mm 2 mps 667 mmHg 90%
    20:00 +16°C° 0.9 mm 3 mps 667 mmHg 91%
    21:00 +16°C° 0.9 mm 3 mps 667 mmHg 92%
    22:00 +16°C° 1.9 mm 3 mps 667 mmHg 93%
    23:00 +14°C° 1.9 mm 3 mps 667 mmHg 94%

    Day after tomorrow, 29 May, Wednesday

    Time Temperature Precipitation Wind Pressure Humidity
    00:00 +14°C° 1.9 mm 3 mps 667 mmHg 95%
    01:00 +15°C° 1.4 mm 2 mps 666 mmHg 95%
    02:00 +15°C° 1.4 mm 2 mps 666 mmHg 95%
    03:00 +15°C° 1.4 mm 2 mps 665 mmHg 96%
    04:00 +15°C° 5.3 mm 1 mps 665 mmHg 95%
    05:00 +15°C° 5.3 mm 1 mps 665 mmHg 94%
    06:00 +15°C° 5.3 mm 1 mps 665 mmHg 93%
    07:00 +18°C° 0.1 mm 1 mps 666 mmHg 82%
    08:00 +19°C° 0.1 mm 1 mps 666 mmHg 71%
    09:00 +21°C° 0.1 mm 1 mps 667 mmHg 59%
    10:00 +21°C° 0 mm 2 mps 667 mmHg 50%
    11:00 +23°C° 0 mm 2 mps 667 mmHg 40%
    12:00 +25°C° 0 mm 2 mps 667 mmHg 30%
    13:00 +24°C° 0 mm 2 mps 667 mmHg 30%
    14:00 +24°C° 0 mm 2 mps 667 mmHg 30%
    15:00 +24°C° 0 mm 2 mps 666 mmHg 30%
    16:00 +23°C° 0 mm 2 mps 666 mmHg 40%
    17:00 +21°C° 0 mm 1 mps 666 mmHg 50%
    18:00 +19°C° 0 mm 1 mps 666 mmHg 59%
    19:00 +16°C° 0 mm 1 mps 666 mmHg 64%
    20:00 +15°C° 0 mm 1 mps 667 mmHg 69%
    21:00 +13°C° 0 mm 1 mps 667 mmHg 74%
    22:00 +13°C° 0 mm 1 mps 668 mmHg 76%
    23:00 +12°C° 0 mm 1 mps 668 mmHg 77%

    30 May, Thursday

    Time Temperature Precipitation Wind Pressure Humidity
    00:00 +11°C° 0 mm 0 mps 668 mmHg 78%
    01:00 +10°C° 0 mm 0 mps 668 mmHg 79%
    02:00 +10°C° 0 mm 0 mps 668 mmHg 80%
    03:00 +10°C° 0 mm 0 mps 668 mmHg 81%
    04:00 +11°C° 0 mm 0 mps 669 mmHg 78%
    05:00 +12°C° 0 mm 1 mps 669 mmHg 76%
    06:00 +13°C° 0 mm 1 mps 670 mmHg 74%
    07:00 +15°C° 0 mm 1 mps 671 mmHg 67%
    08:00 +17°C° 0 mm 2 mps 671 mmHg 60%
    09:00 +19°C° 0 mm 3 mps 672 mmHg 53%
    10:00 +19°C° 0 mm 3 mps 672 mmHg 52%
    11:00 +20°C° 0 mm 3 mps 672 mmHg 51%
    12:00 +21°C° 0 mm 3 mps 672 mmHg 50%
    13:00 +21°C° 0 mm 3 mps 672 mmHg 52%
    14:00 +21°C° 0 mm 3 mps 672 mmHg 54%
    15:00 +20°C° 0 mm 3 mps 671 mmHg 56%
    16:00 +19°C° 0 mm 3 mps 671 mmHg 64%
    17:00 +18°C° 0 mm 3 mps 671 mmHg 71%
    18:00 +16°C° 0 mm 2 mps 671 mmHg 79%
    19:00 +16°C° 0 mm 2 mps 671 mmHg 82%
    20:00 +15°C° 0 mm 2 mps 671 mmHg 86%
    21:00 +14°C° 0 mm 2 mps 672 mmHg 89%
    22:00 +14°C° 0 mm 1 mps 671 mmHg 89%
    23:00 +14°C° 0 mm 1 mps 671 mmHg 89%

    31 May, Friday

    Time Temperature Precipitation Wind Pressure Humidity
    00:00 +14°C° 0 mm 1 mps 671 mmHg 89%
    01:00 +14°C° 0 mm 1 mps 671 mmHg 90%
    02:00 +13°C° 0 mm 1 mps 670 mmHg 90%
    03:00 +13°C° 0 mm 1 mps 670 mmHg 91%
    04:00 +13°C° 0 mm 1 mps 670 mmHg 88%
    05:00 +14°C° 0 mm 1 mps 670 mmHg 86%
    06:00 +14°C° 0 mm 1 mps 670 mmHg 84%
    07:00 +15°C° 0 mm 1 mps 670 mmHg 78%
    08:00 +16°C° 0 mm 2 mps 670 mmHg 73%
    09:00 +17°C° 0 mm 2 mps 671 mmHg 68%
    10:00 +17°C° 0.2 mm 2 mps 670 mmHg 67%
    11:00 +18°C° 0.2 mm 1 mps 670 mmHg 67%
    12:00 +19°C° 0.2 mm 1 mps 669 mmHg 66%
    13:00 +18°C° 0.2 mm 2 mps 669 mmHg 66%
    14:00 +18°C° 0.2 mm 2 mps 668 mmHg 66%
    15:00 +18°C° 0.2 mm 3 mps 668 mmHg 66%
    16:00 +17°C° 0.3 mm 3 mps 668 mmHg 70%
    17:00 +17°C° 0.3 mm 2 mps 667 mmHg 75%
    18:00 +16°C° 0.3 mm 2 mps 667 mmHg 80%
    19:00 +15°C° 0 mm 2 mps 667 mmHg 82%
    20:00 +14°C° 0 mm 1 mps 667 mmHg 85%
    21:00 +12°C° 0 mm 1 mps 667 mmHg 88%
    22:00 +12°C° 0 mm 1 mps 667 mmHg 87%
    23:00 +12°C° 0 mm 1 mps 666 mmHg 85%

    1 June, Saturday

    Time Temperature Precipitation Wind Pressure Humidity
    00:00 +11°C° 0 mm 1 mps 666 mmHg 84%
    01:00 +10°C° 0 mm 2 mps 666 mmHg 82%
    02:00 +10°C° 0 mm 2 mps 666 mmHg 81%
    03:00 +10°C° 0 mm 2 mps 666 mmHg 79%
    04:00 +12°C° 0 mm 2 mps 666 mmHg 77%
    05:00 +12°C° 0 mm 1 mps 667 mmHg 75%
    06:00 +13°C° 0 mm 1 mps 667 mmHg 73%
    07:00 +15°C° 0 mm 1 mps 668 mmHg 60%
    08:00 +19°C° 0 mm 1 mps 669 mmHg 48%
    09:00 +22°C° 0 mm 1 mps 670 mmHg 36%
    10:00 +23°C° 0 mm 1 mps 670 mmHg 35%
    11:00 +24°C° 0 mm 2 mps 670 mmHg 34%
    12:00 +25°C° 0 mm 2 mps 670 mmHg 33%
    13:00 +24°C° 0 mm 2 mps 669 mmHg 36%
    14:00 +24°C° 0 mm 3 mps 669 mmHg 39%
    15:00 +22°C° 0 mm 3 mps 669 mmHg 41%
    16:00 +21°C° 0 mm 3 mps 669 mmHg 49%
    17:00 +20°C° 0 mm 2 mps 669 mmHg 57%
    18:00 +18°C° 0 mm 2 mps 669 mmHg 66%
    19:00 +16°C° 0 mm 1 mps 669 mmHg 72%
    20:00 +15°C° 0 mm 1 mps 669 mmHg 79%
    21:00 +13°C° 0 mm 1 mps 669 mmHg 86%
    22:00 +12°C° 0 mm 1 mps 669 mmHg 84%
    23:00 +12°C° 0 mm 1 mps 668 mmHg 83%
    Show more